Dauntless Aviation
Airports South America Uruguay

Hospital Policial

Montevideo, URUGUAY

Airport Info
Suggest Updated Information for this Airport

Location

Latitude / Longitude: 34°52'4"S / 56°9'6"W
  34°52.068'S / 56°9.114'W
  -34.8678 / -56.1519
Satellite photo at:
Airport distance calculator
From:
Weather Reports

METAR

SUMU
8.1nm NE
SUMU 220400Z 36003KT CAVOK 22/20 Q1012 NOSIG

TAF

SUAA
7.8nm NW
TAF SUAA 212230Z 2200/2224 35010KT 9999 FEW030TCU BKN080 TX32/2218Z TN22/2209Z TEMPO 2200/2206 5000 TSRA FEW040CB OVC060 BECMG 2214/2216 25005KT
SUMU
8.1nm NE
TAF SUMU 212230Z 2200/2224 35010KT 9999 FEW030TCU BKN080 TX32/2218Z TN22/2209Z TEMPO 2200/2206 5000 TSRA FEW040CB OVC060 BECMG 2214/2216 25005KT
Safelog

 

Dauntless Aviation

© 2007-2017 Dauntless Aviation, all rights reserved
Information provided via PilotNav comes from a variety of official and unofficial data sources. As errors are possible, do not use PilotNav for primary flight planning purposes. Verify any information that you receive via PilotNav with current and canonical charts and other official documents. The material in this database is subject to database copyrights held by Dauntless Aviation and may not be copied without the express permission of Dauntless Aviation - licenses for use of part of all of this data are available for purchase; enquire via the Dauntless Aviation helpdesk. A number of mechanisms and markers exist in the database to protect against and identify infringement / copyright. Automated queries against this website are stictly prohibited, and all activity is logged and analyzed.